WFO RAH Logo

WFO RAH Text Data



RWRRAH
NORTH CAROLINA WEATHER ROUNDUP
NATIONAL WEATHER SERVICE RALEIGH NC
900 AM EST THU FEB 01 2007

NOTE: "FAIR" INDICATES FEW OR NO CLOUDS BELOW 12,000 FEET WITH NO
SIGNIFICANT WEATHER AND/OR OBSTRUCTIONS TO VISIBILITY.

NCZ001-053-055-056-065-067-011500-
WESTERN NORTH CAROLINA
  
CITY           SKY/WX    TMP DP  RH WIND       PRES   REMARKS
ASHEVILLE      CLOUDY    29  23  78 SE5       29.91F WCI  24          
JEFFERSON      CLOUDY    25  14  63 SE5       29.87S WCI  19          
MORGANTON      CLOUDY    30  25  80 E3        30.03S                  
HICKORY        CLOUDY    29  24  82 CALM      29.99F                  
RUTHERFORDTON    N/A     30  27  86 CALM      30.00S                  
MOUNT AIRY     CLOUDY    27  23  86 S3        30.01R                  
$$
 
NCZ021-022-025-041-071-084-088-011500-
CENTRAL NORTH CAROLINA
  
CITY           SKY/WX    TMP DP  RH WIND       PRES   REMARKS
CHARLOTTE      LGT SNOW  31  29  92 S3        30.03F FOG              
GREENSBORO     LGT SNOW  29  27  92 S6        30.04R FOG     WCI  23  
WINSTON-SALEM  CLOUDY    30  26  85 S7        30.04R FOG     WCI  23  
RALEIGH-DURHAM LGT SNOW  31  27  85 SW6       30.09F VSB 3/4 WCI  25  
FAYETTEVILLE   SNOW      30  28  92 CALM      30.11R VSB 1/2          
$$
 
NCZ011-015-027-028-043-044-047-080-103-011500-
NORTHEASTERN NORTH CAROLINA
  
CITY           SKY/WX    TMP DP  RH WIND       PRES   REMARKS
ROANOKE RAPIDS CLOUDY    32  17  54 CALM      30.12R                  
ROCKY MT-WILSO LGT SNOW  30  21  69 SE3       30.12S                  
GREENVILLE     FLURRIES  37  21  52 S6        30.13F WCI  33          
WASHINGTON     LGT SNOW  36  27  69 CALM      30.15F                  
ELIZABETH CITY CLOUDY    34  25  69 CALM      30.16R                  
MANTEO         CLOUDY    39  23  52 CALM      30.16R                  
CAPE HATTERAS  CLOUDY    40  29  64 NE6       30.14R                  
$$
 
NCZ078-087-090-091-093-098-101-011500-
SOUTHEASTERN NORTH CAROLINA
  
CITY           SKY/WX    TMP DP  RH WIND       PRES   REMARKS
LUMBERTON      LGT RAIN  33  30  88 N8        30.11R FOG     WCI  26  
KINSTON        LGT SNOW  30  30 100 CALM      30.14F                  
KENANSVILLE    RAIN      36  34  93 CALM      30.13S                  
NEW BERN       HVY RAIN  33  27  78 CALM      30.15R                  
CHERRY POINT   RAIN      35  31  85 N7        30.16R FOG     WCI  29  
BEAUFORT       LGT RAIN  36  29  75 NE9       30.12S WCI  29          
JACKSONVILLE   LGT RAIN  32  28  85 NE8       30.14R WCI  25          
WILMINGTON     LGT RAIN  34  27  75 NE10      30.08F WCI  26          
$$